owner,sensor,date,latitude,longitude,sea_surface_height_above_sea_level,qcFlag 
TCOON,ioos:station:TCOON:013:1,2015-11-01T00:12:00Z,27.4847,-97.3181,1.014,1111122 
TCOON,ioos:station:TCOON:013:1,2015-11-01T01:12:00Z,27.4847,-97.3181,1.008,1111122 
TCOON,ioos:station:TCOON:013:1,2015-11-01T02:12:00Z,27.4847,-97.3181,1.011,1111122 
TCOON,ioos:station:TCOON:013:1,2015-11-01T03:12:00Z,27.4847,-97.3181,1.017,1111122 
TCOON,ioos:station:TCOON:013:1,2015-11-01T04:12:00Z,27.4847,-97.3181,1.023,1111122 
TCOON,ioos:station:TCOON:013:1,2015-11-01T05:12:00Z,27.4847,-97.3181,1.027,1111122 
TCOON,ioos:station:TCOON:013:1,2015-11-01T06:18:00Z,27.4847,-97.3181,1.037,1111122 
TCOON,ioos:station:TCOON:013:1,2015-11-01T07:12:00Z,27.4847,-97.3181,1.039,1111122 
TCOON,ioos:station:TCOON:013:1,2015-11-01T08:12:00Z,27.4847,-97.3181,1.045,1111122 
TCOON,ioos:station:TCOON:013:1,2015-11-01T09:12:00Z,27.4847,-97.3181,1.05,1111122 
TCOON,ioos:station:TCOON:013:1,2015-11-01T10:12:00Z,27.4847,-97.3181,1.051,1111122 
TCOON,ioos:station:TCOON:013:1,2015-11-01T11:12:00Z,27.4847,-97.3181,1.056,1111122 
TCOON,ioos:station:TCOON:013:1,2015-11-01T12:12:00Z,27.4847,-97.3181,1.062,1111122 
TCOON,ioos:station:TCOON:013:1,2015-11-01T13:12:00Z,27.4847,-97.3181,1.066,1111122 
TCOON,ioos:station:TCOON:013:1,2015-11-01T14:12:00Z,27.4847,-97.3181,1.066,1111122 
TCOON,ioos:station:TCOON:013:1,2015-11-01T15:12:00Z,27.4847,-97.3181,1.059,1111122 
TCOON,ioos:station:TCOON:013:1,2015-11-01T16:12:00Z,27.4847,-97.3181,1.055,1111122 
TCOON,ioos:station:TCOON:013:1,2015-11-01T17:12:00Z,27.4847,-97.3181,1.047,1111122 
TCOON,ioos:station:TCOON:013:1,2015-11-01T19:12:00Z,27.4847,-97.3181,1.026,1111122 
TCOON,ioos:station:TCOON:013:1,2015-11-01T20:12:00Z,27.4847,-97.3181,1.016,1111122 
TCOON,ioos:station:TCOON:013:1,2015-11-01T21:12:00Z,27.4847,-97.3181,1.011,1111122 
TCOON,ioos:station:TCOON:013:1,2015-11-01T22:12:00Z,27.4847,-97.3181,1.0,1111122 
TCOON,ioos:station:TCOON:013:1,2015-11-01T23:12:00Z,27.4847,-97.3181,0.998,1111122 
TCOON,ioos:station:TCOON:013:1,2015-11-02T00:12:00Z,27.4847,-97.3181,0.993,1111122 
TCOON,ioos:station:TCOON:013:1,2015-11-02T01:12:00Z,27.4847,-97.3181,0.99,1111122 
TCOON,ioos:station:TCOON:013:1,2015-11-02T02:12:00Z,27.4847,-97.3181,0.988,1111122 
TCOON,ioos:station:TCOON:013:1,2015-11-02T03:12:00Z,27.4847,-97.3181,0.985,1111122 
TCOON,ioos:station:TCOON:013:1,2015-11-02T04:12:00Z,27.4847,-97.3181,0.983,1111122 
TCOON,ioos:station:TCOON:013:1,2015-11-02T05:18:00Z,27.4847,-97.3181,0.989,1111122 
TCOON,ioos:station:TCOON:013:1,2015-11-02T06:18:00Z,27.4847,-97.3181,0.996,1111122 
TCOON,ioos:station:TCOON:013:1,2015-11-02T07:12:00Z,27.4847,-97.3181,1.0,1111122 
TCOON,ioos:station:TCOON:013:1,2015-11-02T08:18:00Z,27.4847,-97.3181,1.011,1111122 
TCOON,ioos:station:TCOON:013:1,2015-11-02T09:12:00Z,27.4847,-97.3181,1.021,1111122 
TCOON,ioos:station:TCOON:013:1,2015-11-02T10:12:00Z,27.4847,-97.3181,1.03,1111122 
TCOON,ioos:station:TCOON:013:1,2015-11-02T11:12:00Z,27.4847,-97.3181,1.039,1111122 
TCOON,ioos:station:TCOON:013:1,2015-11-02T12:12:00Z,27.4847,-97.3181,1.048,1111122 
TCOON,ioos:station:TCOON:013:1,2015-11-02T13:12:00Z,27.4847,-97.3181,1.049,1111122 
TCOON,ioos:station:TCOON:013:1,2015-11-02T14:12:00Z,27.4847,-97.3181,1.047,1111122 
TCOON,ioos:station:TCOON:013:1,2015-11-02T15:12:00Z,27.4847,-97.3181,1.041,1111122 
TCOON,ioos:station:TCOON:013:1,2015-11-02T16:18:00Z,27.4847,-97.3181,1.029,1111122 
TCOON,ioos:station:TCOON:013:1,2015-11-02T17:12:00Z,27.4847,-97.3181,1.021,1111122 
TCOON,ioos:station:TCOON:013:1,2015-11-02T18:12:00Z,27.4847,-97.3181,1.016,1111122 
TCOON,ioos:station:TCOON:013:1,2015-11-02T19:12:00Z,27.4847,-97.3181,1.013,1111122 
TCOON,ioos:station:TCOON:013:1,2015-11-02T20:18:00Z,27.4847,-97.3181,1.006,1111122 
TCOON,ioos:station:TCOON:013:1,2015-11-02T21:12:00Z,27.4847,-97.3181,1.001,1111122 
TCOON,ioos:station:TCOON:013:1,2015-11-02T22:12:00Z,27.4847,-97.3181,0.997,1111122 
TCOON,ioos:station:TCOON:013:1,2015-11-02T23:12:00Z,27.4847,-97.3181,0.991,1111122 
TCOON,ioos:station:TCOON:013:1,2015-11-03T00:12:00Z,27.4847,-97.3181,0.983,1111122 
TCOON,ioos:station:TCOON:013:1,2015-11-03T01:12:00Z,27.4847,-97.3181,0.972,1111122 
TCOON,ioos:station:TCOON:013:1,2015-11-03T02:12:00Z,27.4847,-97.3181,0.969,1111122 
TCOON,ioos:station:TCOON:013:1,2015-11-03T03:12:00Z,27.4847,-97.3181,0.966,1111122 
TCOON,ioos:station:TCOON:013:1,2015-11-03T04:12:00Z,27.4847,-97.3181,0.962,1111122 
TCOON,ioos:station:TCOON:013:1,2015-11-03T05:12:00Z,27.4847,-97.3181,0.958,1111122 
TCOON,ioos:station:TCOON:013:1,2015-11-03T06:18:00Z,27.4847,-97.3181,0.956,1111122 
TCOON,ioos:station:TCOON:013:1,2015-11-03T07:12:00Z,27.4847,-97.3181,0.955,1111122 
TCOON,ioos:station:TCOON:013:1,2015-11-03T08:12:00Z,27.4847,-97.3181,0.957,1111122 
TCOON,ioos:station:TCOON:013:1,2015-11-03T09:12:00Z,27.4847,-97.3181,0.96,1111122 
TCOON,ioos:station:TCOON:013:1,2015-11-03T10:12:00Z,27.4847,-97.3181,0.963,1111122 
TCOON,ioos:station:TCOON:013:1,2015-11-03T11:12:00Z,27.4847,-97.3181,0.967,1111122 
TCOON,ioos:station:TCOON:013:1,2015-11-03T12:12:00Z,27.4847,-97.3181,0.97,1111122 
TCOON,ioos:station:TCOON:013:1,2015-11-03T13:12:00Z,27.4847,-97.3181,0.973,1111122 
TCOON,ioos:station:TCOON:013:1,2015-11-03T14:12:00Z,27.4847,-97.3181,0.972,1111122 
TCOON,ioos:station:TCOON:013:1,2015-11-03T15:12:00Z,27.4847,-97.3181,0.971,1111122 
TCOON,ioos:station:TCOON:013:1,2015-11-03T16:12:00Z,27.4847,-97.3181,0.969,1111122 
TCOON,ioos:station:TCOON:013:1,2015-11-03T17:12:00Z,27.4847,-97.3181,0.968,1111122 
TCOON,ioos:station:TCOON:013:1,2015-11-03T18:12:00Z,27.4847,-97.3181,0.968,1111122 
TCOON,ioos:station:TCOON:013:1,2015-11-03T19:12:00Z,27.4847,-97.3181,0.967,1111122 
TCOON,ioos:station:TCOON:013:1,2015-11-03T20:18:00Z,27.4847,-97.3181,0.961,1111122 
TCOON,ioos:station:TCOON:013:1,2015-11-03T21:18:00Z,27.4847,-97.3181,0.955,1111122 
TCOON,ioos:station:TCOON:013:1,2015-11-03T22:12:00Z,27.4847,-97.3181,0.949,1111122 
TCOON,ioos:station:TCOON:013:1,2015-11-03T23:12:00Z,27.4847,-97.3181,0.943,1111122 
TCOON,ioos:station:TCOON:013:1,2015-11-04T00:12:00Z,27.4847,-97.3181,0.937,1111122 
TCOON,ioos:station:TCOON:013:1,2015-11-04T01:12:00Z,27.4847,-97.3181,0.929,1111122 
TCOON,ioos:station:TCOON:013:1,2015-11-04T02:12:00Z,27.4847,-97.3181,0.925,1111122 
TCOON,ioos:station:TCOON:013:1,2015-11-04T03:12:00Z,27.4847,-97.3181,0.923,1111122 
TCOON,ioos:station:TCOON:013:1,2015-11-04T04:06:00Z,27.4847,-97.3181,0.922,1111122 
TCOON,ioos:station:TCOON:013:1,2015-11-04T05:12:00Z,27.4847,-97.3181,0.92,1111122 
TCOON,ioos:station:TCOON:013:1,2015-11-04T06:12:00Z,27.4847,-97.3181,0.919,1111122 
TCOON,ioos:station:TCOON:013:1,2015-11-04T07:12:00Z,27.4847,-97.3181,0.918,1111122 
TCOON,ioos:station:TCOON:013:1,2015-11-04T08:12:00Z,27.4847,-97.3181,0.922,1111122 
TCOON,ioos:station:TCOON:013:1,2015-11-04T09:12:00Z,27.4847,-97.3181,0.92,1111122 
TCOON,ioos:station:TCOON:013:1,2015-11-04T10:12:00Z,27.4847,-97.3181,0.923,1111122 
TCOON,ioos:station:TCOON:013:1,2015-11-04T11:12:00Z,27.4847,-97.3181,0.928,1111122 
TCOON,ioos:station:TCOON:013:1,2015-11-04T12:12:00Z,27.4847,-97.3181,0.933,1111122 
TCOON,ioos:station:TCOON:013:1,2015-11-04T13:12:00Z,27.4847,-97.3181,0.941,1111122 
TCOON,ioos:station:TCOON:013:1,2015-11-04T14:12:00Z,27.4847,-97.3181,0.946,1111122 
TCOON,ioos:station:TCOON:013:1,2015-11-04T15:06:00Z,27.4847,-97.3181,0.949,1111122 
TCOON,ioos:station:TCOON:013:1,2015-11-04T16:18:00Z,27.4847,-97.3181,0.947,1111122 
TCOON,ioos:station:TCOON:013:1,2015-11-04T18:06:00Z,27.4847,-97.3181,0.944,1111122 
TCOON,ioos:station:TCOON:013:1,2015-11-04T19:18:00Z,27.4847,-97.3181,0.94,1111122 
TCOON,ioos:station:TCOON:013:1,2015-11-04T20:18:00Z,27.4847,-97.3181,0.938,1111122 
TCOON,ioos:station:TCOON:013:1,2015-11-04T21:12:00Z,27.4847,-97.3181,0.933,1111122 
TCOON,ioos:station:TCOON:013:1,2015-11-04T22:12:00Z,27.4847,-97.3181,0.929,1111122 
TCOON,ioos:station:TCOON:013:1,2015-11-04T23:12:00Z,27.4847,-97.3181,0.926,1111122 
TCOON,ioos:station:TCOON:013:1,2015-11-05T00:12:00Z,27.4847,-97.3181,0.922,1111122 
TCOON,ioos:station:TCOON:013:1,2015-11-05T01:12:00Z,27.4847,-97.3181,0.919,1111122 
TCOON,ioos:station:TCOON:013:1,2015-11-05T02:12:00Z,27.4847,-97.3181,0.916,1111122 
TCOON,ioos:station:TCOON:013:1,2015-11-05T03:12:00Z,27.4847,-97.3181,0.912,1111122 
TCOON,ioos:station:TCOON:013:1,2015-11-05T04:12:00Z,27.4847,-97.3181,0.912,1111122 
TCOON,ioos:station:TCOON:013:1,2015-11-05T05:12:00Z,27.4847,-97.3181,0.913,1111122 
TCOON,ioos:station:TCOON:013:1,2015-11-05T06:18:00Z,27.4847,-97.3181,0.911,1111122 
TCOON,ioos:station:TCOON:013:1,2015-11-05T07:12:00Z,27.4847,-97.3181,0.91,1111122 
TCOON,ioos:station:TCOON:013:1,2015-11-05T08:12:00Z,27.4847,-97.3181,0.911,1111122 
TCOON,ioos:station:TCOON:013:1,2015-11-05T09:12:00Z,27.4847,-97.3181,0.914,1111122 
TCOON,ioos:station:TCOON:013:1,2015-11-05T10:12:00Z,27.4847,-97.3181,0.918,1111122 
TCOON,ioos:station:TCOON:013:1,2015-11-05T11:12:00Z,27.4847,-97.3181,0.921,1111122 
TCOON,ioos:station:TCOON:013:1,2015-11-05T12:12:00Z,27.4847,-97.3181,0.926,1111122 
TCOON,ioos:station:TCOON:013:1,2015-11-05T13:12:00Z,27.4847,-97.3181,0.93,1111122 
TCOON,ioos:station:TCOON:013:1,2015-11-05T14:12:00Z,27.4847,-97.3181,0.933,1111122 
TCOON,ioos:station:TCOON:013:1,2015-11-05T15:12:00Z,27.4847,-97.3181,0.935,1111122 
TCOON,ioos:station:TCOON:013:1,2015-11-05T16:12:00Z,27.4847,-97.3181,0.934,1111122 
TCOON,ioos:station:TCOON:013:1,2015-11-05T17:12:00Z,27.4847,-97.3181,0.936,1111122 
TCOON,ioos:station:TCOON:013:1,2015-11-05T18:12:00Z,27.4847,-97.3181,0.933,1111122 
TCOON,ioos:station:TCOON:013:1,2015-11-05T19:12:00Z,27.4847,-97.3181,0.931,1111122 
TCOON,ioos:station:TCOON:013:1,2015-11-05T20:12:00Z,27.4847,-97.3181,0.928,1111122 
TCOON,ioos:station:TCOON:013:1,2015-11-05T21:12:00Z,27.4847,-97.3181,0.925,1111122 
TCOON,ioos:station:TCOON:013:1,2015-11-05T22:12:00Z,27.4847,-97.3181,0.923,1111122 
TCOON,ioos:station:TCOON:013:1,2015-11-05T23:12:00Z,27.4847,-97.3181,0.919,1111122 
TCOON,ioos:station:TCOON:013:1,2015-11-06T00:12:00Z,27.4847,-97.3181,0.917,1111122 
TCOON,ioos:station:TCOON:013:1,2015-11-06T01:12:00Z,27.4847,-97.3181,0.915,1111122 
TCOON,ioos:station:TCOON:013:1,2015-11-06T02:12:00Z,27.4847,-97.3181,0.913,1111122 
TCOON,ioos:station:TCOON:013:1,2015-11-06T03:12:00Z,27.4847,-97.3181,0.911,1111122 
TCOON,ioos:station:TCOON:013:1,2015-11-06T04:12:00Z,27.4847,-97.3181,0.91,1111122 
TCOON,ioos:station:TCOON:013:1,2015-11-06T05:12:00Z,27.4847,-97.3181,0.909,1111122 
TCOON,ioos:station:TCOON:013:1,2015-11-06T06:12:00Z,27.4847,-97.3181,0.907,1111122 
TCOON,ioos:station:TCOON:013:1,2015-11-06T07:12:00Z,27.4847,-97.3181,0.908,1111122 
TCOON,ioos:station:TCOON:013:1,2015-11-06T08:12:00Z,27.4847,-97.3181,0.909,1111122 
TCOON,ioos:station:TCOON:013:1,2015-11-06T09:12:00Z,27.4847,-97.3181,0.909,1111122 
TCOON,ioos:station:TCOON:013:1,2015-11-06T10:06:00Z,27.4847,-97.3181,0.912,1111122 
TCOON,ioos:station:TCOON:013:1,2015-11-06T11:12:00Z,27.4847,-97.3181,0.919,1111122 
TCOON,ioos:station:TCOON:013:1,2015-11-06T12:06:00Z,27.4847,-97.3181,0.923,1111122 
TCOON,ioos:station:TCOON:013:1,2015-11-06T13:12:00Z,27.4847,-97.3181,0.927,1111122 
TCOON,ioos:station:TCOON:013:1,2015-11-06T14:12:00Z,27.4847,-97.3181,0.926,1111122 
TCOON,ioos:station:TCOON:013:1,2015-11-06T15:12:00Z,27.4847,-97.3181,0.921,1111122 
TCOON,ioos:station:TCOON:013:1,2015-11-06T16:12:00Z,27.4847,-97.3181,0.916,1111122 
TCOON,ioos:station:TCOON:013:1,2015-11-06T17:12:00Z,27.4847,-97.3181,0.909,1111122 
TCOON,ioos:station:TCOON:013:1,2015-11-06T18:12:00Z,27.4847,-97.3181,0.904,1111122 
TCOON,ioos:station:TCOON:013:1,2015-11-06T19:12:00Z,27.4847,-97.3181,0.897,1111122 
TCOON,ioos:station:TCOON:013:1,2015-11-06T20:12:00Z,27.4847,-97.3181,0.89,1111122 
TCOON,ioos:station:TCOON:013:1,2015-11-06T21:12:00Z,27.4847,-97.3181,0.884,1111122 
TCOON,ioos:station:TCOON:013:1,2015-11-06T22:12:00Z,27.4847,-97.3181,0.884,1111122 
TCOON,ioos:station:TCOON:013:1,2015-11-06T23:12:00Z,27.4847,-97.3181,0.888,1111122 
TCOON,ioos:station:TCOON:013:1,2015-11-07T00:12:00Z,27.4847,-97.3181,0.892,1111122 
TCOON,ioos:station:TCOON:013:1,2015-11-07T01:12:00Z,27.4847,-97.3181,0.893,1111122 
TCOON,ioos:station:TCOON:013:1,2015-11-07T02:12:00Z,27.4847,-97.3181,0.897,1111122 
TCOON,ioos:station:TCOON:013:1,2015-11-07T03:12:00Z,27.4847,-97.3181,0.896,1111122 
TCOON,ioos:station:TCOON:013:1,2015-11-07T04:12:00Z,27.4847,-97.3181,0.896,1111122 
TCOON,ioos:station:TCOON:013:1,2015-11-07T05:12:00Z,27.4847,-97.3181,0.896,1111122 
TCOON,ioos:station:TCOON:013:1,2015-11-07T06:12:00Z,27.4847,-97.3181,0.896,1111122 
TCOON,ioos:station:TCOON:013:1,2015-11-07T07:12:00Z,27.4847,-97.3181,0.898,1111122 
TCOON,ioos:station:TCOON:013:1,2015-11-07T08:12:00Z,27.4847,-97.3181,0.904,1111122 
TCOON,ioos:station:TCOON:013:1,2015-11-07T09:12:00Z,27.4847,-97.3181,0.907,1111122 
TCOON,ioos:station:TCOON:013:1,2015-11-07T10:12:00Z,27.4847,-97.3181,0.932,1111122 
TCOON,ioos:station:TCOON:013:1,2015-11-07T11:12:00Z,27.4847,-97.3181,0.931,1111122 
TCOON,ioos:station:TCOON:013:1,2015-11-07T12:12:00Z,27.4847,-97.3181,0.934,1111122 
TCOON,ioos:station:TCOON:013:1,2015-11-07T13:12:00Z,27.4847,-97.3181,0.935,1111122 
TCOON,ioos:station:TCOON:013:1,2015-11-07T14:12:00Z,27.4847,-97.3181,0.962,1111122 
TCOON,ioos:station:TCOON:013:1,2015-11-07T15:12:00Z,27.4847,-97.3181,0.923,1111122 
TCOON,ioos:station:TCOON:013:1,2015-11-07T16:12:00Z,27.4847,-97.3181,0.971,1111122 
TCOON,ioos:station:TCOON:013:1,2015-11-07T17:12:00Z,27.4847,-97.3181,0.957,1111122 
TCOON,ioos:station:TCOON:013:1,2015-11-07T18:12:00Z,27.4847,-97.3181,0.952,1111122 
TCOON,ioos:station:TCOON:013:1,2015-11-07T19:12:00Z,27.4847,-97.3181,0.943,1111122 
TCOON,ioos:station:TCOON:013:1,2015-11-07T20:42:00Z,27.4847,-97.3181,0.936,1111122 
TCOON,ioos:station:TCOON:013:1,2015-11-07T21:12:00Z,27.4847,-97.3181,0.933,1111122 
TCOON,ioos:station:TCOON:013:1,2015-11-07T22:06:00Z,27.4847,-97.3181,0.927,1111122 
TCOON,ioos:station:TCOON:013:1,2015-11-07T23:42:00Z,27.4847,-97.3181,0.922,1111122 
TCOON,ioos:station:TCOON:013:1,2015-11-08T00:06:00Z,27.4847,-97.3181,0.921,1111122 
TCOON,ioos:station:TCOON:013:1,2015-11-08T01:18:00Z,27.4847,-97.3181,0.919,1111122 
TCOON,ioos:station:TCOON:013:1,2015-11-08T02:18:00Z,27.4847,-97.3181,0.921,1111122 
TCOON,ioos:station:TCOON:013:1,2015-11-08T03:12:00Z,27.4847,-97.3181,0.921,1111122 
TCOON,ioos:station:TCOON:013:1,2015-11-08T04:12:00Z,27.4847,-97.3181,0.922,1111122 
TCOON,ioos:station:TCOON:013:1,2015-11-08T05:18:00Z,27.4847,-97.3181,0.922,1111122 
TCOON,ioos:station:TCOON:013:1,2015-11-08T06:12:00Z,27.4847,-97.3181,0.921,1111122 
TCOON,ioos:station:TCOON:013:1,2015-11-08T07:18:00Z,27.4847,-97.3181,0.927,1111122 
TCOON,ioos:station:TCOON:013:1,2015-11-08T08:18:00Z,27.4847,-97.3181,0.93,1111122 
TCOON,ioos:station:TCOON:013:1,2015-11-08T09:18:00Z,27.4847,-97.3181,0.936,1111122 
TCOON,ioos:station:TCOON:013:1,2015-11-08T10:18:00Z,27.4847,-97.3181,0.941,1111122 
TCOON,ioos:station:TCOON:013:1,2015-11-08T11:18:00Z,27.4847,-97.3181,0.946,1111122 
TCOON,ioos:station:TCOON:013:1,2015-11-08T12:12:00Z,27.4847,-97.3181,0.948,1111122 
TCOON,ioos:station:TCOON:013:1,2015-11-08T13:18:00Z,27.4847,-97.3181,0.947,1111122 
TCOON,ioos:station:TCOON:013:1,2015-11-08T14:12:00Z,27.4847,-97.3181,0.954,1111122 
TCOON,ioos:station:TCOON:013:1,2015-11-08T15:18:00Z,27.4847,-97.3181,0.956,1111122 
TCOON,ioos:station:TCOON:013:1,2015-11-08T16:12:00Z,27.4847,-97.3181,0.959,1111122 
TCOON,ioos:station:TCOON:013:1,2015-11-08T17:12:00Z,27.4847,-97.3181,0.951,1111122 
TCOON,ioos:station:TCOON:013:1,2015-11-08T18:12:00Z,27.4847,-97.3181,0.946,1111122 
TCOON,ioos:station:TCOON:013:1,2015-11-08T19:12:00Z,27.4847,-97.3181,0.945,1111122 
TCOON,ioos:station:TCOON:013:1,2015-11-08T20:12:00Z,27.4847,-97.3181,0.944,1111122 
TCOON,ioos:station:TCOON:013:1,2015-11-08T21:12:00Z,27.4847,-97.3181,0.938,1111122 
TCOON,ioos:station:TCOON:013:1,2015-11-08T22:12:00Z,27.4847,-97.3181,0.94,1111122 
TCOON,ioos:station:TCOON:013:1,2015-11-08T23:30:00Z,27.4847,-97.3181,0.946,1111122 
TCOON,ioos:station:TCOON:013:1,2015-11-09T00:12:00Z,27.4847,-97.3181,0.951,1111122 
TCOON,ioos:station:TCOON:013:1,2015-11-09T01:12:00Z,27.4847,-97.3181,0.962,1111122 
TCOON,ioos:station:TCOON:013:1,2015-11-09T02:12:00Z,27.4847,-97.3181,0.97,1111122 
TCOON,ioos:station:TCOON:013:1,2015-11-09T03:12:00Z,27.4847,-97.3181,0.977,1111122 
TCOON,ioos:station:TCOON:013:1,2015-11-09T04:12:00Z,27.4847,-97.3181,0.988,1111122 
TCOON,ioos:station:TCOON:013:1,2015-11-09T05:12:00Z,27.4847,-97.3181,0.996,1111122 
TCOON,ioos:station:TCOON:013:1,2015-11-09T06:12:00Z,27.4847,-97.3181,0.998,1111122 
TCOON,ioos:station:TCOON:013:1,2015-11-09T07:12:00Z,27.4847,-97.3181,1.002,1111122 
TCOON,ioos:station:TCOON:013:1,2015-11-09T08:12:00Z,27.4847,-97.3181,1.005,1111122 
TCOON,ioos:station:TCOON:013:1,2015-11-09T09:12:00Z,27.4847,-97.3181,1.005,1111122 
TCOON,ioos:station:TCOON:013:1,2015-11-09T10:12:00Z,27.4847,-97.3181,1.0,1111122 
TCOON,ioos:station:TCOON:013:1,2015-11-09T11:12:00Z,27.4847,-97.3181,1.003,1111122 
TCOON,ioos:station:TCOON:013:1,2015-11-09T12:12:00Z,27.4847,-97.3181,1.005,1111122 
TCOON,ioos:station:TCOON:013:1,2015-11-09T13:12:00Z,27.4847,-97.3181,1.001,1111122 
TCOON,ioos:station:TCOON:013:1,2015-11-09T14:12:00Z,27.4847,-97.3181,1.0,1111122 
TCOON,ioos:station:TCOON:013:1,2015-11-09T15:12:00Z,27.4847,-97.3181,0.993,1111122 
TCOON,ioos:station:TCOON:013:1,2015-11-09T16:12:00Z,27.4847,-97.3181,0.983,1111122 
TCOON,ioos:station:TCOON:013:1,2015-11-09T17:30:00Z,27.4847,-97.3181,0.968,1111122 
TCOON,ioos:station:TCOON:013:1,2015-11-09T18:12:00Z,27.4847,-97.3181,0.962,1111122 
TCOON,ioos:station:TCOON:013:1,2015-11-09T19:12:00Z,27.4847,-97.3181,0.954,1111122 
TCOON,ioos:station:TCOON:013:1,2015-11-09T20:12:00Z,27.4847,-97.3181,0.942,1111122 
TCOON,ioos:station:TCOON:013:1,2015-11-09T21:12:00Z,27.4847,-97.3181,0.936,1111122 
TCOON,ioos:station:TCOON:013:1,2015-11-09T22:18:00Z,27.4847,-97.3181,0.93,1111122 
TCOON,ioos:station:TCOON:013:1,2015-11-09T23:30:00Z,27.4847,-97.3181,0.928,1111122 
TCOON,ioos:station:TCOON:013:1,2015-11-10T00:12:00Z,27.4847,-97.3181,0.93,1111122 
TCOON,ioos:station:TCOON:013:1,2015-11-10T01:12:00Z,27.4847,-97.3181,0.937,1111122 
TCOON,ioos:station:TCOON:013:1,2015-11-10T02:12:00Z,27.4847,-97.3181,0.947,1111122 
TCOON,ioos:station:TCOON:013:1,2015-11-10T03:12:00Z,27.4847,-97.3181,0.956,1111122 
TCOON,ioos:station:TCOON:013:1,2015-11-10T04:12:00Z,27.4847,-97.3181,0.966,1111122 
TCOON,ioos:station:TCOON:013:1,2015-11-10T05:12:00Z,27.4847,-97.3181,0.974,1111122 
TCOON,ioos:station:TCOON:013:1,2015-11-10T06:12:00Z,27.4847,-97.3181,0.978,1111122 
TCOON,ioos:station:TCOON:013:1,2015-11-10T07:12:00Z,27.4847,-97.3181,0.984,1111122 
TCOON,ioos:station:TCOON:013:1,2015-11-10T08:12:00Z,27.4847,-97.3181,1.0,1111122 
TCOON,ioos:station:TCOON:013:1,2015-11-10T09:30:00Z,27.4847,-97.3181,0.988,1111122 
TCOON,ioos:station:TCOON:013:1,2015-11-10T10:12:00Z,27.4847,-97.3181,0.988,1111122 
TCOON,ioos:station:TCOON:013:1,2015-11-10T11:12:00Z,27.4847,-97.3181,0.989,1111122 
TCOON,ioos:station:TCOON:013:1,2015-11-10T12:12:00Z,27.4847,-97.3181,0.986,1111122 
TCOON,ioos:station:TCOON:013:1,2015-11-10T13:12:00Z,27.4847,-97.3181,0.984,1111122 
TCOON,ioos:station:TCOON:013:1,2015-11-10T14:12:00Z,27.4847,-97.3181,0.978,1111122 
TCOON,ioos:station:TCOON:013:1,2015-11-10T15:12:00Z,27.4847,-97.3181,0.972,1111122 
TCOON,ioos:station:TCOON:013:1,2015-11-10T16:12:00Z,27.4847,-97.3181,0.968,1111122 
TCOON,ioos:station:TCOON:013:1,2015-11-10T17:12:00Z,27.4847,-97.3181,0.966,1111122 
TCOON,ioos:station:TCOON:013:1,2015-11-10T18:12:00Z,27.4847,-97.3181,0.961,1111122 
TCOON,ioos:station:TCOON:013:1,2015-11-10T19:12:00Z,27.4847,-97.3181,0.956,1111122 
TCOON,ioos:station:TCOON:013:1,2015-11-10T20:18:00Z,27.4847,-97.3181,0.951,1111122 
TCOON,ioos:station:TCOON:013:1,2015-11-10T21:12:00Z,27.4847,-97.3181,0.946,1111122 
TCOON,ioos:station:TCOON:013:1,2015-11-10T22:06:00Z,27.4847,-97.3181,0.942,1111122 
TCOON,ioos:station:TCOON:013:1,2015-11-10T23:12:00Z,27.4847,-97.3181,0.94,1111122 
TCOON,ioos:station:TCOON:013:1,2015-11-11T00:12:00Z,27.4847,-97.3181,0.937,1111122 
TCOON,ioos:station:TCOON:013:1,2015-11-11T01:12:00Z,27.4847,-97.3181,0.935,1111122 
TCOON,ioos:station:TCOON:013:1,2015-11-11T02:12:00Z,27.4847,-97.3181,0.937,1111122 
TCOON,ioos:station:TCOON:013:1,2015-11-11T03:12:00Z,27.4847,-97.3181,0.942,1111122 
TCOON,ioos:station:TCOON:013:1,2015-11-11T04:12:00Z,27.4847,-97.3181,0.946,1111122 
TCOON,ioos:station:TCOON:013:1,2015-11-11T05:06:00Z,27.4847,-97.3181,0.951,1111122 
TCOON,ioos:station:TCOON:013:1,2015-11-11T06:12:00Z,27.4847,-97.3181,0.954,1111122 
TCOON,ioos:station:TCOON:013:1,2015-11-11T07:12:00Z,27.4847,-97.3181,0.958,1111122 
TCOON,ioos:station:TCOON:013:1,2015-11-11T08:12:00Z,27.4847,-97.3181,0.962,1111122 
TCOON,ioos:station:TCOON:013:1,2015-11-11T09:30:00Z,27.4847,-97.3181,0.958,1111122 
TCOON,ioos:station:TCOON:013:1,2015-11-11T10:12:00Z,27.4847,-97.3181,0.958,1111122 
TCOON,ioos:station:TCOON:013:1,2015-11-11T11:12:00Z,27.4847,-97.3181,0.959,1111122 
TCOON,ioos:station:TCOON:013:1,2015-11-11T12:12:00Z,27.4847,-97.3181,0.959,1111122 
TCOON,ioos:station:TCOON:013:1,2015-11-11T13:12:00Z,27.4847,-97.3181,0.959,1111122 
TCOON,ioos:station:TCOON:013:1,2015-11-11T14:12:00Z,27.4847,-97.3181,0.956,1111122 
TCOON,ioos:station:TCOON:013:1,2015-11-11T15:12:00Z,27.4847,-97.3181,0.953,1111122 
TCOON,ioos:station:TCOON:013:1,2015-11-11T16:12:00Z,27.4847,-97.3181,0.951,1111122 
TCOON,ioos:station:TCOON:013:1,2015-11-11T17:12:00Z,27.4847,-97.3181,0.949,1111122 
TCOON,ioos:station:TCOON:013:1,2015-11-11T18:12:00Z,27.4847,-97.3181,0.946,1111122 
TCOON,ioos:station:TCOON:013:1,2015-11-11T19:18:00Z,27.4847,-97.3181,0.944,1111122 
TCOON,ioos:station:TCOON:013:1,2015-11-11T20:12:00Z,27.4847,-97.3181,0.94,1111122 
TCOON,ioos:station:TCOON:013:1,2015-11-11T21:12:00Z,27.4847,-97.3181,0.935,1111122 
TCOON,ioos:station:TCOON:013:1,2015-11-11T22:12:00Z,27.4847,-97.3181,0.932,1111122 
TCOON,ioos:station:TCOON:013:1,2015-11-11T23:18:00Z,27.4847,-97.3181,0.931,1111122 
TCOON,ioos:station:TCOON:013:1,2015-11-12T00:12:00Z,27.4847,-97.3181,0.931,1111122 
TCOON,ioos:station:TCOON:013:1,2015-11-12T01:24:00Z,27.4847,-97.3181,0.929,1111122 
TCOON,ioos:station:TCOON:013:1,2015-11-12T02:54:00Z,27.4847,-97.3181,0.925,1111122 
TCOON,ioos:station:TCOON:013:1,2015-11-12T03:12:00Z,27.4847,-97.3181,0.926,1111122 
TCOON,ioos:station:TCOON:013:1,2015-11-12T04:12:00Z,27.4847,-97.3181,0.926,1111122 
TCOON,ioos:station:TCOON:013:1,2015-11-12T05:12:00Z,27.4847,-97.3181,0.923,1111122 
TCOON,ioos:station:TCOON:013:1,2015-11-12T06:12:00Z,27.4847,-97.3181,0.924,1111122 
TCOON,ioos:station:TCOON:013:1,2015-11-12T07:12:00Z,27.4847,-97.3181,0.925,1111122 
TCOON,ioos:station:TCOON:013:1,2015-11-12T08:12:00Z,27.4847,-97.3181,0.925,1111122 
TCOON,ioos:station:TCOON:013:1,2015-11-12T09:12:00Z,27.4847,-97.3181,0.924,1111122 
TCOON,ioos:station:TCOON:013:1,2015-11-12T10:12:00Z,27.4847,-97.3181,0.95,1111122 
TCOON,ioos:station:TCOON:013:1,2015-11-12T11:12:00Z,27.4847,-97.3181,0.941,1111122 
TCOON,ioos:station:TCOON:013:1,2015-11-12T12:12:00Z,27.4847,-97.3181,0.932,1111122 
TCOON,ioos:station:TCOON:013:1,2015-11-12T13:12:00Z,27.4847,-97.3181,0.928,1111122 
TCOON,ioos:station:TCOON:013:1,2015-11-12T14:12:00Z,27.4847,-97.3181,0.927,1111122 
TCOON,ioos:station:TCOON:013:1,2015-11-12T15:12:00Z,27.4847,-97.3181,0.915,1111122 
TCOON,ioos:station:TCOON:013:1,2015-11-12T16:12:00Z,27.4847,-97.3181,0.905,1111122 
TCOON,ioos:station:TCOON:013:1,2015-11-12T17:12:00Z,27.4847,-97.3181,0.897,1111122 
TCOON,ioos:station:TCOON:013:1,2015-11-12T18:12:00Z,27.4847,-97.3181,0.889,1111122 
TCOON,ioos:station:TCOON:013:1,2015-11-12T19:12:00Z,27.4847,-97.3181,0.877,1111122 
TCOON,ioos:station:TCOON:013:1,2015-11-12T20:12:00Z,27.4847,-97.3181,0.867,1111122 
TCOON,ioos:station:TCOON:013:1,2015-11-12T21:12:00Z,27.4847,-97.3181,0.858,1111122 
TCOON,ioos:station:TCOON:013:1,2015-11-12T22:12:00Z,27.4847,-97.3181,0.851,1111122 